WetterOnline ( https://www.wetteronline.de )

Wetter aktuell Boostedt

Aktuelles Wetter: Itzehoe (26m)

6-stündlich | Neueste Meldungen
Ortszeit Temperatur Wetter
Do, 02.07. 20:00 18.6° C wolkig
Do, 02.07. 14:00 19.8° C wolkig
Do, 02.07. 8:00 16.1° C bewölkt
Do, 02.07. 2:00 15.8° C bedeckt
Mi, 01.07. 20:00 19.2° C wolkig
Mi, 01.07. 14:00 21.1° C bewölkt
Mi, 01.07. 8:00 14.8° C bewölkt
Mi, 01.07. 2:00 13.0° C Sprühregen
Ortszeit Temperatur Wetter
Fr, 03.07. 1:00 15.0° C leicht bewölkt
Fr, 03.07. 0:50 15.0° C leicht bewölkt
Fr, 03.07. 0:40 15.0° C wolkig
Fr, 03.07. 0:30 15.0° C bedeckt
Fr, 03.07. 0:20 15.0° C bedeckt
Fr, 03.07. 0:10 15.3° C bewölkt
Fr, 03.07. 0:00 14.9° C bewölkt
Do, 02.07. 23:30 14.8° C wolkig
Do, 02.07. 23:00 15.3° C bedeckt
Do, 02.07. 22:30 15.1° C wolkig
Do, 02.07. 22:00 16.6° C wolkig
Ortszeit Relative Feuchte Sichtweite
Do, 02.07. 20:00 71% 50 km
Do, 02.07. 14:00 64% >70 km
Do, 02.07. 8:00 88% 27 km
Do, 02.07. 2:00 95% 27 km
Mi, 01.07. 20:00 76% 45 km
Mi, 01.07. 14:00 58% 65 km
Mi, 01.07. 8:00 92% 21 km
Mi, 01.07. 2:00 97% 7 km
Ortszeit Relative Feuchte Sichtweite
Fr, 03.07. 1:00 85% 45 km
Fr, 03.07. 0:50 85% -
Fr, 03.07. 0:40 91% -
Fr, 03.07. 0:30 92% 22 km
Fr, 03.07. 0:20 92% -
Fr, 03.07. 0:10 90% -
Fr, 03.07. 0:00 91% 30 km
Do, 02.07. 23:30 90% 25 km
Do, 02.07. 23:00 88% 30 km
Do, 02.07. 22:30 87% 30 km
Do, 02.07. 22:00 80% 45 km
Ortszeit Niederschlagsmenge Niederschlagsart
Do, 02.07. 20:00 0.1 l/m2 in 12 Std. Regen
Do, 02.07. 14:00 0.0 l/m2 in 6 Std. -
Do, 02.07. 8:00 1 l/m2 in 12 Std. Regen
Do, 02.07. 2:00 1 l/m2 in 6 Std. Regen
Mi, 01.07. 20:00 1 l/m2 in 12 Std. Regen
Mi, 01.07. 14:00 0.0 l/m2 in 3 Std. -
Mi, 01.07. 8:00 2 l/m2 in 12 Std. Sprühregen
Mi, 01.07. 2:00 2 l/m2 in 6 Std. Regen
Ortszeit Niederschlagsmenge Niederschlagsart
Fr, 03.07. 1:00 0.0 l/m2 in 1 Std. -
Fr, 03.07. 0:50 keine Meldung -
Fr, 03.07. 0:40 keine Meldung -
Fr, 03.07. 0:30 0.0 l/m2 in 1 Std. -
Fr, 03.07. 0:20 keine Meldung -
Fr, 03.07. 0:10 keine Meldung -
Fr, 03.07. 0:00 0.0 l/m2 in 1 Std. -
Do, 02.07. 23:30 0.0 l/m2 in 1 Std. -
Do, 02.07. 23:00 0.0 l/m2 in 1 Std. -
Do, 02.07. 22:30 0.0 l/m2 in 1 Std. -
Do, 02.07. 22:00 0.0 l/m2 in 1 Std. -
Ortszeit Stärke Spitze Richtung
km/h Bft. km/h Grad Sektor
Do, 02.07. 20:00 7 2 20 330° NW
Do, 02.07. 14:00 9 2 24 280° W
Do, 02.07. 8:00 6 1 17 240° SW
Do, 02.07. 2:00 9 2 31 240° SW
Mi, 01.07. 20:00 9 2 48 330° NW
Mi, 01.07. 14:00 11 2 25 210° SW
Mi, 01.07. 8:00 7 2 18 240° SW
Mi, 01.07. 2:00 7 2 40 240° SW
Ortszeit Stärke Spitze Richtung
km/h Bft. km/h Grad Sektor
Fr, 03.07. 1:00 6 1 9 350° N
Fr, 03.07. 0:50 6 1 - 350° N
Fr, 03.07. 0:40 7 2 - 340° N
Fr, 03.07. 0:30 0 0 7 - -
Fr, 03.07. 0:20 0 0 - 340° N
Fr, 03.07. 0:10 4 1 - 250° W
Fr, 03.07. 0:00 4 1 7 200° S
Do, 02.07. 23:30 4 1 7 210° SW
Do, 02.07. 23:00 2 1 6 250° W
Do, 02.07. 22:30 4 1 7 330° NW
Do, 02.07. 22:00 4 1 4 220° SW
Ortszeit Untergrenze Bedeckung Gattung
total tief tief mittel hoch
Do, 02.07. 20:00 660 m 8/8 3/8 - - -
Do, 02.07. 14:00 930 m 5/8 5/8 - - -
Do, 02.07. 8:00 2100 m 8/8 7/8 - - -
Do, 02.07. 2:00 360 m 8/8 8/8 - - -
Mi, 01.07. 20:00 1020 m 6/8 4/8 - - -
Mi, 01.07. 14:00 1080 m 7/8 8/8 - - -
Mi, 01.07. 8:00 180 m 7/8 6/8 - - -
Mi, 01.07. 2:00 120 m 8/8 8/8 - - -
Ortszeit Bedeckungsgrad in Achtel und Wolkenuntergrenze
Fr, 03.07. 1:00 1(2400m) 3(7800m)
Fr, 03.07. 0:50 1(2400m) 3(7800m)
Fr, 03.07. 0:40 2(1020m) 3(2400m) 7(7800m)
Fr, 03.07. 0:30 3(690m) 7(990m) 8(1290m)
Fr, 03.07. 0:20 3(690m) 7(990m) 8(1290m)
Fr, 03.07. 0:10 6(690m) 7(1350m) 8(6600m)
Fr, 03.07. 0:00 3(750m) 5(1320m) 8(6600m)
Do, 02.07. 23:30 1(870m) 4(6000m) 8(6900m)
Do, 02.07. 23:00 7(4500m) 8(5100m) 8(5700m)
Do, 02.07. 22:30 1(1800m) 6(5100m) 8(6000m)
Do, 02.07. 22:00 1(1800m) 8(7200m) 8(7800m)
Ortszeit Luftdruck NN (hPa) Tendenz (hPa in 3 Std.)
Do, 02.07. 20:00 1010 + 0,8
Do, 02.07. 14:00 1009 + 0,7
Do, 02.07. 8:00 1007 + 1,0
Do, 02.07. 2:00 1006 + 0,6
Mi, 01.07. 20:00 1003 + 0,5
Mi, 01.07. 14:00 1004 - 0,6
Mi, 01.07. 8:00 1005 + 0,6
Mi, 01.07. 2:00 1005 - 0,7
Ortszeit Luftdruck NN (hPa) Tendenz (hPa in 3 Std.)
Fr, 03.07. 1:00 1012 + 0,8
Fr, 03.07. 0:50 1012 keine Meldung
Fr, 03.07. 0:40 1012 keine Meldung
Fr, 03.07. 0:30 1012 + 1,2
Fr, 03.07. 0:20 1012 keine Meldung
Fr, 03.07. 0:10 1012 keine Meldung
Fr, 03.07. 0:00 1011 + 1,3
Do, 02.07. 23:30 1011 + 1,0
Do, 02.07. 23:00 1011 + 1,2
Do, 02.07. 22:30 1011 + 1,0
Do, 02.07. 22:00 1011 + 1,2
Ortszeit Schneehöhe (cm)
Do, 02.07. 20:00 -
Do, 02.07. 14:00 -
Do, 02.07. 8:00 -
Do, 02.07. 2:00 -
Mi, 01.07. 20:00 -
Mi, 01.07. 14:00 -
Mi, 01.07. 8:00 -
Mi, 01.07. 2:00 -
Ortszeit Schneehöhe (cm)
Fr, 03.07. 1:00 -
Fr, 03.07. 0:50 -
Fr, 03.07. 0:40 -
Fr, 03.07. 0:30 -
Fr, 03.07. 0:20 -
Fr, 03.07. 0:10 -
Fr, 03.07. 0:00 -
Do, 02.07. 23:30 -
Do, 02.07. 23:00 -
Do, 02.07. 22:30 -
Do, 02.07. 22:00 -
Link zu dieser Seite / Seite empfehlen

Das Wetter in ...